Location: Benque
(43.2594°N, 0.9178°E)
Time: 17:35:25
(UTC+00:00)

Cosmos 1603 - Pass Details

Date: 24 January 2020
Orbit: 831 x 859 km, 71.0° (Epoch: 21 February)

Event Time Altitude Azimuth Distance (km) Brightness Sun altitude
Rises 19:18:11 0° 337° (NNW) 3,420 7.1 -25.6°
Reaches altitude 10° 19:20:41 10° 340° (NNW) 2,476 6.3 -26.0°
Enters shadow 19:25:15 54° 12° (NNE) 1,023 3.9 -26.8°
